LiveATC.Net - Listen to live air traffic control over the Internet!


ICAO: KMRN  IATA: MRN   Airport: Foothills Regional Airport
City: Morganton   State/Province: North Carolina
Country: United States   Continent: North America
KMRN METAR Weather: KMRN 281215Z AUTO 00000KT 10SM CLR 18/13 A2996 RMK AO2 T01800128
KMRN Flight Activity (FlightAware)
KMRN Airport Info   (iFlightPlanner)
KMRN VFR Sectional Chart   (iFlightPlanner) 
KMRN IFR Low Altitude Chart   (iFlightPlanner) 
KMRN IFR High Altitude Chart   (iFlightPlanner) 

KMRN CTAF
Feed Status: UP   Listeners: 0
Listen in your browser - HTML5 player (in browser, HTML5)
Click here to listen with your own player (launches your MP3 player)
Archive Access: KMRN CTAF
FacilityFrequency
Foothills CTAF122.700

NOTICE

Unauthorized use prohibited. See LiveATC.net Terms of Service


Airport/ARTCC Code
Frequency Search
(e.g., 124.400, 128.75)
Site-wide search
 


Browse Feeds
Top 50 Feeds
HF Oceanic Feeds
Coverage Map
Bad Weather Areas

LiveATC FAQ
Offer LiveATC feed
Contact LiveATC.net
Press Inquiries

LiveATC on iPhone
LiveATC on Android

LiveATC Mobile
(Mobile browser)

ATC Audio Archives
Interesting Recordings

LiveATC Forums


Home Page
About LiveATC.net


Terms of Use
Privacy Policy

AIRMETs/SIGMETs

FAA Airport Status
NAS Status
Arrival Demand


Server Software By:
Icecast.org
Liquidsoap